Flag for Norway Weather past 2 weeks in Brumunddal, Norway

Now
28 °F

Chilly.


Feels Like: 20 °F
Forecast: 17 / 25 °F
Wind: 8 mph from North

Location: Lillehammer-Saetherengen

Current Time: Feb 1, 2015 at 12:46:44 PM

Latest Report: Feb 1, 2015 at 12:00 PM


Visibility: N/A

Pressure: 29.06 "Hg

Humidity: 66%

Dew point: 18 °F

Location of BrumunddalLocation

Historic Weather in Brumunddal — Graph

°F

Brumunddal temperature yesterday

Maximum temperature yesterday: 30 °F (at 2:00 PM)
Minimum temperature yesterday: 27 °F (at 8:00 PM)
Average temperature yesterday: 28 °F

Past Weeks' High & Low Weather Summary

 TemperatureHumidityPressure
High35 °F (Jan 28, 2:00 PM)98% (Jan 29, 7:00 AM)30.32 "Hg (Jan 29, 7:00 AM)
Low6 °F (Jan 23, 10:00 AM)70% (Feb 1, 10:00 AM)28.41 "Hg (Jan 29, 7:00 AM)
Average22 °F92%29.64 "Hg
* Reported Jan 17 11:00 AM — Feb 1 11:00 AM, Brumunddal, Weather by CustomWeather, © 2014

Note: Actual official high and low records may vary slightly from our data, if they occured in-between our weather recording intervals... More about our weather records

Advertising

Brumunddal weather history for previous 24 hours

 ConditionsComfort  
Time TempWeatherWind HumidityBarometerVisibility
11:00 AM
Feb 1
27 °FChilly.5 mph71%29.06 "HgN/A
10:00 AM27 °FChilly.5 mph70%29.06 "HgN/A
9:00 AM27 °FChilly.6 mph71%29.03 "HgN/A
8:00 AM27 °FChilly.7 mph71%29.03 "HgN/A
7:00 AM27 °FChilly.7 mph73%29.03 "HgN/A
6:00 AM27 °FChilly.8 mph73%29.03 "HgN/A
5:00 AM27 °FChilly.6 mph72%29.03 "HgN/A
4:00 AM26 °FChilly.5 mph74%29.03 "HgN/A
3:00 AM26 °FChilly.5 mph74%29.03 "HgN/A
2:00 AM26 °FChilly.5 mph74%29.06 "HgN/A
1:00 AM27 °FChilly.7 mph74%29.06 "HgN/A
12:00 AM27 °FChilly.6 mph75%29.06 "HgN/A
11:00 PM
Jan 31
27 °FChilly.6 mph77%29.06 "HgN/A
10:00 PM28 °FChilly.6 mph76%29.06 "HgN/A
9:00 PM28 °FChilly.6 mph78%29.06 "HgN/A
8:00 PM27 °FChilly.5 mph80%29.06 "HgN/A
7:00 PM28 °FChilly.3 mph81%29.06 "HgN/A
6:00 PM28 °FChilly.3 mph81%29.06 "HgN/A
5:00 PM28 °FChilly.3 mph83%29.03 "HgN/A
4:00 PM28 °FChilly.5 mph83%29.03 "HgN/A
3:00 PM29 °FChilly.3 mph83%29.03 "HgN/A
2:00 PM30 °FChilly.3 mph81%29.03 "HgN/A
1:00 PM29 °FChilly.2 mph82%29.03 "HgN/A
12:00 PM29 °FChilly.2 mph84%29.03 "HgN/A
Weather by CustomWeather, © 2014

See weather overviewHow to use our weather pages